TIANLIAN 2-03

Last updated on Thu Nov 21 2024 00:02:44 GMT+0000 (Coordinated Universal Time)

1 53100U 22078A 24324.80583238 .00000074 00000+0 00000+0 0 9999 2 53100 0.8285 278.9338 0002510 335.8518 105.2061 1.00273161 8795
UTC large
Height (km)
Speed (km/s)
/
Latitude / Longitude
Inclination (degrees)
Orbital Period (minutes)
Azimuth
Elevation
Range (km)
Doppler Factor

Next 0 passes for location: London (51.5072 / 0.1276)

Sorry there are no passes over London.